Hamburg, Germany

5:53 AM CET on March 25, 2017 (GMT +0100)
Hamburg

Weather History for 10147 - January, 2014

Change the Weather History Date:

Tuesday, January 7, 2014

  Actual Average Record
Temperature  
Mean Temperature 48 °F -  
Max Temperature 52 °F 37 °F - ()
Min Temperature 45 °F 28 °F - ()
Degree Days  
Heating Degree Days 16    
Moisture  
Dew Point 44 °F    
Average Humidity 77    
Maximum Humidity 94    
Minimum Humidity 61    
Precipitation  
Precipitation 0.00 in 0.07 in - ()
Sea Level Pressure  
Sea Level Pressure 29.76 in    
Wind  
Wind Speed 15 mph ()    
Max Wind Speed 23 mph    
Max Gust Speed 36 mph    
Visibility 7.5 miles    
Events Rain    
T = Trace of Precipitation, MM = Missing Value Source: Averaged Metar Reports

Daily Weather History Graph

Daily Weather History Graph

Search for Another Location

Airport or City:

Trip Planner

Search our weather history database for the weather conditions in past years. The results will help you decide how hot, cold, wet, or windy it might be!

Date:

Astronomy

Jan. 07, 2014 Rise Set
Actual Time 8:34 AM CET 4:18 PM CET
Civil Twilight 7:52 AM CET 5:00 PM CET
Nautical Twilight 7:07 AM CET 5:45 PM CET
Astronomical Twilight 6:25 AM CET 6:27 PM CET
Moon 11:10 AM CET (1/7) No Moon Set
Length of Visible Light 9h 07m
Length of Day
7h 43m
Waxing Crescent, 42% of the Moon is Illuminated
Jan 7
Waxing Crescent
Jan 8
First Quarter
Jan 16
Full
Jan 24
Last Quarter
Jan 30
New

Hourly Weather History & Observations

Time (CET) Temp. Windchill Dew Point Humidity Pressure Visibility Wind Dir Wind Speed Gust Speed Precip Events Conditions
12:00 AM 51 °F - 48 °F 87% 29.62 in 6 mi SSW 22.4 mph - - Rain Rain
12:20 AM 50.0 °F - 48.2 °F 94% 29.62 in 6.2 mi SSW 17.3 mph 32.2 mph N/A   Mostly Cloudy
12:50 AM 51.8 °F - 46.4 °F 82% 29.59 in 6.2 mi SSW 19.6 mph - N/A   Mostly Cloudy
1:00 AM 51 °F - 47 °F 82% 29.61 in 25 mi SSW 20.1 mph - - Rain Light Rain
1:20 AM 51.8 °F - 46.4 °F 82% 29.62 in 6.2 mi SSW 21.9 mph - N/A Rain Light Rain
1:50 AM 48.2 °F - 46.4 °F 93% 29.65 in 6.2 mi West 11.5 mph - N/A Rain Light Rain
2:00 AM 49 °F - 46 °F 87% 29.67 in 12 mi West 11.2 mph - - Rain Light Rain
2:20 AM 48.2 °F - 44.6 °F 87% 29.65 in 6.2 mi WSW 5.8 mph - N/A   Mostly Cloudy
2:50 AM 46.4 °F 43.5 °F 44.6 °F 93% 29.68 in 6.2 mi SSW 5.8 mph - N/A   Mostly Cloudy
3:00 AM 47 °F - 45 °F 89% 29.68 in 25 mi SSW 6.7 mph - - Rain Light Rain
3:20 AM 46.4 °F 42.9 °F 44.6 °F 93% 29.68 in 6.2 mi South 6.9 mph - N/A   Partly Cloudy
3:50 AM 48.2 °F - 44.6 °F 87% 29.68 in 6.2 mi SSW 11.5 mph - N/A   Partly Cloudy
4:20 AM 48.2 °F - 44.6 °F 87% 29.71 in 6.2 mi SSW 12.7 mph - N/A   Partly Cloudy
4:50 AM 48.2 °F - 44.6 °F 87% 29.71 in 6.2 mi SW 12.7 mph - N/A   Partly Cloudy
5:00 AM 47 °F - 45 °F 90% 29.72 in 25 mi SW 11.2 mph - -   Scattered Clouds
5:20 AM 48.2 °F - 44.6 °F 87% 29.71 in 6.2 mi SSW 15.0 mph - N/A   Partly Cloudy
5:50 AM 48.2 °F - 44.6 °F 87% 29.71 in 6.2 mi SW 15.0 mph - N/A   Partly Cloudy
6:00 AM 47 °F - 44 °F 87% 29.73 in 25 mi SW 13.4 mph - -   Scattered Clouds
6:20 AM 48.2 °F - 44.6 °F 87% 29.71 in 6.2 mi SW 16.1 mph - N/A   Partly Cloudy
6:50 AM 48.2 °F - 44.6 °F 87% 29.74 in 6.2 mi SW 16.1 mph - N/A   Partly Cloudy
7:00 AM 48 °F - 44 °F 83% 29.74 in 25 mi SW 15.7 mph - -   Partly Cloudy
7:20 AM 48.2 °F - 44.6 °F 87% 29.74 in 6.2 mi SW 16.1 mph - N/A   Mostly Cloudy
7:50 AM 48.2 °F - 44.6 °F 87% 29.74 in - SW 17.3 mph - N/A   Clear
8:00 AM 48 °F - 44 °F 81% 29.77 in 25 mi SW 17.9 mph - -   Mostly Cloudy
8:20 AM 48.2 °F - 44.6 °F 87% 29.77 in 6.2 mi SW 16.1 mph - N/A   Mostly Cloudy
8:50 AM 48.2 °F - 44.6 °F 87% 29.77 in 6.2 mi SW 16.1 mph - N/A   Mostly Cloudy
9:00 AM 49 °F - 44 °F 76% 29.80 in 25 mi SW 15.7 mph - -   Partly Cloudy
9:20 AM 50.0 °F - 44.6 °F 82% 29.77 in 6.2 mi SSW 15.0 mph - N/A   Mostly Cloudy
9:50 AM 50.0 °F - 44.6 °F 82% 29.77 in 6.2 mi SSW 18.4 mph - N/A   Mostly Cloudy
10:20 AM 50.0 °F - 44.6 °F 82% 29.80 in 6.2 mi SSW 17.3 mph - N/A   Mostly Cloudy
10:50 AM 51.8 °F - 44.6 °F 76% 29.80 in 6.2 mi SSW 16.1 mph - N/A   Mostly Cloudy
11:00 AM 51 °F - 44 °F 70% 29.82 in 19 mi SSW 15.7 mph - -   Scattered Clouds
11:20 AM 50.0 °F - 44.6 °F 82% 29.80 in 6.2 mi SSW 17.3 mph - N/A   Mostly Cloudy
11:50 AM 51.8 °F - 44.6 °F 76% 29.80 in 6.2 mi SW 18.4 mph - N/A   Mostly Cloudy
12:00 PM 51 °F - 44 °F 71% 29.82 in 19 mi SW 17.9 mph - -   Mostly Cloudy
12:20 PM 51.8 °F - 44.6 °F 76% 29.80 in 6.2 mi SW 19.6 mph - N/A   Mostly Cloudy
12:50 PM 51.8 °F - 44.6 °F 76% 29.80 in 6.2 mi SW 16.1 mph - N/A   Mostly Cloudy
1:00 PM 52 °F - 44 °F 67% 29.83 in 22 mi SW 15.7 mph - -   Partly Cloudy
1:20 PM 51.8 °F - 44.6 °F 76% 29.80 in 6.2 mi SW 18.4 mph - N/A   Mostly Cloudy
1:50 PM 51.8 °F - 42.8 °F 71% 29.80 in 6.2 mi SSW 16.1 mph - N/A   Mostly Cloudy
2:00 PM 52 °F - 43 °F 64% 29.82 in 22 mi SSW 15.7 mph - -   Scattered Clouds
2:20 PM 51.8 °F - 44.6 °F 76% 29.80 in 6.2 mi SSW 17.3 mph - N/A   Mostly Cloudy
2:50 PM 51.8 °F - 42.8 °F 71% 29.80 in 6.2 mi SSW 18.4 mph - N/A   Mostly Cloudy
3:00 PM 51 °F - 43 °F 67% 29.82 in 25 mi SSW 17.9 mph - -   Partly Cloudy
3:20 PM 51.8 °F - 42.8 °F 71% 29.80 in 6.2 mi SSW 18.4 mph - N/A   Mostly Cloudy
3:50 PM 51.8 °F - 42.8 °F 71% 29.80 in 6.2 mi SSW 13.8 mph - N/A   Mostly Cloudy
4:20 PM 51.8 °F - 42.8 °F 71% 29.80 in 6.2 mi SSW 12.7 mph - N/A   Mostly Cloudy
4:50 PM 51.8 °F - 42.8 °F 71% 29.80 in 6.2 mi SSW 11.5 mph - N/A   Mostly Cloudy
5:00 PM 51 °F - 42 °F 64% 29.83 in 25 mi SSW 11.2 mph - -   Mostly Cloudy
5:20 PM 51.8 °F - 42.8 °F 71% 29.80 in 6.2 mi SSW 12.7 mph - N/A   Mostly Cloudy
5:50 PM 51.8 °F - 42.8 °F 71% 29.80 in 6.2 mi South 13.8 mph - N/A   Mostly Cloudy
6:00 PM 51 °F - 42 °F 62% 29.83 in 28 mi South 13.4 mph - -   Mostly Cloudy
6:20 PM 51.8 °F - 42.8 °F 71% 29.80 in - SSW 15.0 mph - N/A   Clear
6:50 PM 51.8 °F - 42.8 °F 71% 29.80 in - SSW 16.1 mph - N/A   Clear
7:00 PM 52 °F - 42 °F 61% 29.82 in 25 mi SSW 15.7 mph - -   Mostly Cloudy
7:20 PM 51.8 °F - 42.8 °F 71% 29.80 in - SSW 17.3 mph - N/A   Clear
7:50 PM 51.8 °F - 42.8 °F 71% 29.80 in - SSW 16.1 mph - N/A   Clear
8:00 PM 52 °F - 43 °F 61% 29.82 in 25 mi SSW 15.7 mph - -   Mostly Cloudy
8:20 PM 51.8 °F - 42.8 °F 71% 29.80 in - SSW 19.6 mph - N/A   Clear
8:50 PM 51.8 °F - 42.8 °F 71% 29.80 in - SSW 20.7 mph - N/A   Clear
9:00 PM 52 °F - 43 °F 63% 29.82 in 19 mi SSW 20.1 mph - -   Overcast
9:20 PM 51.8 °F - 42.8 °F 71% 29.80 in 6.2 mi SSW 23.0 mph 35.7 mph N/A   Mostly Cloudy
9:50 PM 51.8 °F - 42.8 °F 71% 29.83 in 6.2 mi WSW 9.2 mph - N/A   Mostly Cloudy
10:20 PM 51.8 °F - 42.8 °F 71% 29.83 in 6.2 mi SW 16.1 mph - N/A   Mostly Cloudy
10:50 PM 51.8 °F - 42.8 °F 71% 29.83 in 6.2 mi SW 17.3 mph - N/A   Scattered Clouds
11:00 PM 51 °F - 43 °F 66% 29.84 in 19 mi SW 17.9 mph - -   Mostly Cloudy
11:20 PM 51.8 °F - 42.8 °F 71% 29.83 in - SW 16.1 mph - N/A   Clear
11:50 PM 50.0 °F - 42.8 °F 76% 29.83 in - SW 12.7 mph - N/A   Clear